STARLINK-36689, 67878

Orbit data source: Space-Track

STARLINK-36689, 67878 is a payload satellite owned by SpaceX/Seattle (US) in LEO that was launched on Fri, 20 Feb 2026 UTC via an FALCON 9 launch vehicle from the Air Force Eastern Test Range (AFETR). Payload-class satellites include a variety of spacecraft equipped with specific instruments for various scientific and technological missions. These include communications satellites like Starlink; space stations such as the ISS; scientific satellites like the Hubble; Earth observation satellites from companies like Planet Labs, Umbra, and HawkEye 360; GPS; miniature CubeSats for education and research; and military/defense satellites.

Loading next visibility...
Identifier
67878, 2026-034AE
Orbit
LEO
Country
Flag of USUS
Related business
Manufacturer
SpaceX/Seattle
Mission
Operational Commercial Communications
Bus & Motor
STARLINK V2MO, Unknown motor
Mass
575 kg wet, ~530 kg dry
Launch date (UTC)
2026-02-20 (4 months ago)
Launch vehicle
FALCON 9
Launch site
Air Force Eastern Test Range (AFETR)
Object type
Payload
Rocket body
Debris
Shape & HBR
Box + 2 Pan, 17.7 m
Radar Cross Section
36.964 m², Large (>1 m²)

Expand to show TLE details & history
Last TLE update: 22 hours ago

TLE from 22 hours ago
0 STARLINK-36689
1 67878U 26034AE  26170.97195166  .00016078  00000-0  55361-3 0  9996
2 67878  53.1614  89.2834 0001511 102.8561 257.2609 15.30210705 19693
Epoch: 2026-06-19T23:19Z
TLE epoch observation values (Epoch: 2026-06-19T23:19:36.623Z)
Latitude
0.00001°
Longitude
-168.81245°
Altitude
476.311 km
Speed
7.629 km/s
True Right ascension
05h 57m 08s
True Declination
0° 00' 00"
Sunlit
Object was in daylight at epoch
Visualization orbit readout
Latitude
Unknown
Longitude
Unknown
Altitude
Unknown
Speed
Unknown
Apparent Right ascension
Unknown
Apparent Declination
Unknown
Sunlit
N/A
Visualization observer readout
Local Sidereal Time
08:33:44
Azimuth
Unknown
Elevation
Unknown
Doppler factor
Unknown
Orbital elements
Apogee altitude
476.475 km
Perigee altitude
474.404 km
Semi-major axis
6,853.576 km
Eccentricity
0.00015
Inclination
53.1614°
RAAN
89.2834°
Arg. of periapsis
102.8561°
True anomaly
257.24401°
Mean anomaly
257.2609°
Eccentric anomaly
257.25246°
Mean motion
3.82532 °/min
Orbital period
94.11 mins
BSTAR
0.00055361
Loading maneuver chart data...
Computing Atmospheric mass density...
Loading historical data...
Loading historical data...
Loading historical data...
Loading historical data...
Loading historical data...
Loading historical data...
Loading historical data...

Documentation

Showing up to 5 results
|